Regional Weather Roundup
Issued by NWS Albany, NY

Home | Current Version | Previous Version | Text Only | Print | Product List | Glossary On
Versions: 1 2 3 4 5 6 7 8 9 10 11 12 13 14 15 16 17 18 19 20 21 22 23 24 25 26 27 28 29 30 31 32 33 34 35 36 37 38 39 40 41 42 43 44 45 46 47 48 49 50
547
ASUS41 KALY 300910
RWRALY

NEW YORK STATE HOURLY WEATHER ROUNDUP
NATIONAL WEATHER SERVICE ALBANY NY
500 AM EDT TUE AUG 30 2016

NOTE: "FAIR" INDICATES FEW OR NO CLOUDS BELOW 12,000 FEET WITH NO
SIGNIFICANT WEATHER AND/OR NO OBSTRUCTIONS TO VISIBILITY.

NYZ032-033-038>043-046>054-057>066-NYZ062>081-082-084-301000-
EAST


CITY           SKY/WX    TMP DP  RH WIND       PRES   REMARKS
ALBANY         CLEAR     58  55  90 CALM      30.19R
GLENS FALLS    CLEAR     53  51  93 CALM      30.18S FOG
POUGHKEEPSIE   CLEAR     57  54  89 CALM      30.17S
NEWBURGH       CLEAR     63  57  82 CALM      30.19S
MONTGOMERY     CLEAR     56  54  93 CALM      30.18S
WHITE PLAINS   CLEAR     65  53  65 N6        30.16S
ISLIP            N/A    N/A N/A N/A MISG      30.15R
NEW YORK CITY  PTCLDY    73  61  65 NE9       30.15R
CENTRAL PARK   MOCLDY    72  56  57 E7        30.18R
$$

NYZ005>009-017-018-044>046-055-056-301000-
CENTRAL


CITY           SKY/WX    TMP DP  RH WIND       PRES   REMARKS
FULTON         CLEAR     53  52  96 CALM      30.18F
SYRACUSE       PTCLDY    57  55  93 SE3       30.19R
ROME           CLEAR     54  54 100 N3        30.22R
ELMIRA         CLOUDY    54  52  93 CALM      30.21R FOG
BINGHAMTON     PTCLDY    56  54  93 W3        30.21S
MONTICELLO     CLEAR     55  54  94 MISG      30.21F
$$

NYZ026>034-041>043-087-301000-
NORTH


CITY           SKY/WX    TMP DP  RH WIND       PRES   REMARKS
WATERTOWN      CLEAR     52  50  93 E3        30.17F
FORT DRUM      NOT AVBL
MASSENA        CLOUDY    55  53  93 S3        30.18S
SARANAC LAKE   FOG       47  45  93 CALM      30.20S VSB 1/4
PLATTSBURGH    PTCLDY    55  54  96 SW3       30.16S
$$

NYZ001>004-010>016-019>021-085-301000-
WEST


CITY           SKY/WX    TMP DP  RH WIND       PRES   REMARKS
NIAGARA FALLS    N/A    N/A N/A N/A MISG      30.17F
BUFFALO        PTCLDY    62  58  86 SE5       30.19S
DUNKIRK        PTCLDY    59  57  93 S3        30.19S
JAMESTOWN        N/A     57  55  94 CALM      30.23S VSB 3/4
WELLSVILLE     FOG       54  53  97 CALM      30.26R VSB 1
ROCHESTER      CLEAR     58  56  93 SW6       30.19F
PENN YAN       FOG       59  57  93 SW5       30.22R VSB 3/4
$$

             KEY
       WCI = WIND CHILL INDEX
       VSB = VISIBILITY
       HX  = HEAT INDEX
$$




USA.gov is the U.S. government's official web portal to all federal, state and local government web resources and services.